Location: Ceske Budejovice
(48.9830°N, 14.4670°E)
Time: 12:50:32
(UTC+02:00)

ISS - Pass Details

Date: 09 July 2022
Orbit: 412 x 420 km, 51.6° (Epoch: 17 August)

Event Time Altitude Azimuth Distance (km) Brightness Sun altitude
Exits shadow 03:14:26 -1° 279° (W) 2,425 -0.1 -13.2°
Rises 03:14:35 0° 279° (W) 2,360 -0.2 -13.2°
Reaches altitude 10° 03:16:43 10° 284° (WNW) 1,498 -1.1 -13.0°
Maximum altitude 03:20:01 52° 2° (N) 531 -2.9 -12.8°
Drops below altitude 10° 03:23:19 10° 81° (E) 1,504 -0.3 -12.5°
Sets 03:25:28 0° 86° (E) 2,369 0.6 -12.3°
